Simultaneous Nadir Overpasses (SNOs) Predictions

Prediction of SNOs between GOES-16 and TERRA Satellite Orbit:

Table of predicted SNOs for the next 14.0 days since TLE Epoch: 4/25/2020
Index Date Time (GOES-16) GOES-16 Lat,Lon TERRA Lat,Lon Distance(km) Time Diff (sec)
1 04/26/2020 15:14:30 0.04, -75.18 -0.88, -70.87 490.39 80
2 04/27/2020 03:35:53 -0.03, -75.16 -0.20, -76.06 101.67 80
3 04/29/2020 03:21:00 -0.03, -75.17 0.43, -73.10 235.99 80
4 04/29/2020 15:42:15 0.02, -75.19 0.68, -78.25 347.94 80
5 05/01/2020 15:30:02 0.02, -75.20 0.05, -75.29 9.83 80
6 05/03/2020 15:20:29 0.02, -75.22 -0.59, -72.32 329.08 80
7 05/04/2020 03:41:53 -0.01, -75.20 -0.49, -77.51 262.36 80
8 05/06/2020 03:27:00 -0.01, -75.23 0.15, -74.55 77.35 80
9 05/08/2020 03:14:47 -0.01, -75.25 0.79, -71.59 417.38 80
10 05/08/2020 15:36:02 0.01, -75.28 0.32, -76.74 166.08 80




NCC Satellite Simultaneous Nadir Overpasses (SNOs) Prediction Service
